Regional Weather Roundup
Issued by NWS

Home | Current Version | Previous Version | Text Only | Print | Product List | Glossary Off
Versions: 1 2 3 4 5 6 7 8 9 10 11 12 13 14 15 16 17 18 19 20 21 22 23 24 25 26 27 28 29 30 31 32 33 34 35 36 37 38 39 40 41 42 43 44 45 46 47 48 49 50

000
ASUS43 KIND 202359
RWRIN

WEATHER ROUNDUP FOR INDIANA
NATIONAL WEATHER SERVICE INDIANAPOLIS IN
800 PM EDT WED AUG 20 2014

NOTE: "FAIR" INDICATES FEW OR NO CLOUDS BELOW 12,000 FEET WITH NO
SIGNIFICANT WEATHER AND/OR OBSTRUCTIONS TO VISIBILITY.

* - STATION DOES NOT REPORT WEATHER SUCH AS PRECIPITATION OR FOG.

+ - STATION NOT QUALITY CONTROLLED BY THE NATIONAL WEATHER SERVICE.
    USE DATA WITH CAUTION...ESPECIALLY DEWPOINT AND RELATIVE
    HUMIDITY OBSERVATIONS.

INZ001>003-010>013-019-020-210100-
NORTHWEST INDIANA

CITY           SKY/WX    TMP DP  RH WIND       PRES   REMARKS
KNOX *+        PTCLDY    79  66  64 W6        29.90R
MONTICELLO +   PTCLDY    78  70  77 W7        29.92R
RENSSELAER +   PTCLDY    79  72  78 SW12G17   29.91F
VALPARAISO     CLEAR     80  66  62 SW9       29.91R
6HR MIN TEMP:  80; 6HR MAX TEMP:  85;


$$

LMZ046-743>745-210100-
SOUTHERN LAKE MICHIGAN

STATION/POSITION TIME  TEMP WIND        PRES
                       AIR  DIR/SP/G
                 (UTC) (F)  (DEG/KT/KT) (MB)
BURNS HARBOR     2300   83  220/ 10/ 13   N/A
MICHIGAN CITY    2300   79  230/  6/  8   N/A

$$

INZ004-005-014>016-021>024-210100-
NORTH CENTRAL INDIANA

CITY           SKY/WX    TMP DP  RH WIND       PRES   REMARKS
ELKHART        CLEAR     81  64  57 CALM      29.90R
GOSHEN         CLEAR     80  66  62 W6        29.89S
6HR MIN TEMP:  76; 6HR MAX TEMP:  86; 6HR PCP: TRACE;

SOUTH BEND     MOCLDY    81  64  56 W7        29.90R
6HR MIN TEMP:  81; 6HR MAX TEMP:  86;

WARSAW +       MOCLDY    81  66  61 SW3       29.90R

$$

INZ006>009-017-018-025>027-210100-
NORTHEAST INDIANA

CITY           SKY/WX    TMP DP  RH WIND       PRES   REMARKS
ANGOLA *+      CLEAR     81  75  83 CALM      29.90R
FORT WAYNE     PTCLDY    77  66  68 W6        29.91R
6HR MIN TEMP:  77; 6HR MAX TEMP:  84;


$$

INZ028-029-035-036-043>045-051>053-210100-
WEST CENTRAL INDIANA

CITY           SKY/WX    TMP DP  RH WIND       PRES   REMARKS
GREENCASTLE +  MOCLDY    73  68  83 CALM      29.95R
LAFAYETTE      PTCLDY    75  67  76 W8        29.93R
6HR MIN TEMP:  75; 6HR MAX TEMP:  80;

TERRE HAUTE    MOCLDY    77  70  79 SW7       29.94S
6HR MIN TEMP:  72; 6HR MAX TEMP:  77; 6HR PCP:  0.11;


$$

INZ030>032-037>040-046>048-054>057-064-065-210100-
CENTRAL INDIANA

CITY           SKY/WX    TMP DP  RH WIND       PRES   REMARKS
COLUMBUS       CLEAR     77  72  83 CALM      29.96R
FRANKFORT +    CLEAR     75  66  73 W12       29.95R
INDIANAPOLIS   MOCLDY    76  68  76 SW9       29.93S
6HR MIN TEMP:  74; 6HR MAX TEMP:  81; 6HR PCP: TRACE;

-EAGLE CREEK   PTCLDY    77  64  64 W5        29.93S
6HR MIN TEMP:  74; 6HR MAX TEMP:  81; 6HR PCP: TRACE;

KOKOMO *+      PTCLDY    81  64  57 W9        29.91F
MT COMFORT *+  CLEAR     75  63  64 S3        29.94S
SHELBYVILLE    CLEAR     75  67  76 S6        29.94R
6HR MIN TEMP:  74; 6HR MAX TEMP:  83; 6HR PCP:  0.02;


$$

INZ033-034-041-042-049-050-058-059-210100-
EAST CENTRAL INDIANA

CITY           SKY/WX    TMP DP  RH WIND       PRES   REMARKS
MUNCIE         CLEAR     79  63  57 W9        29.93R
6HR MIN TEMP:  79; 6HR MAX TEMP:  84;


$$

INZ060-061-067>069-081>083-085>088-210100-
SOUTHWEST INDIANA

CITY           SKY/WX    TMP DP  RH WIND       PRES   REMARKS
EVANSVILLE     PTCLDY    82  68  62 CALM      29.97R
6HR MIN TEMP:  80; 6HR MAX TEMP:  87;


$$

INZ062-063-066-070>080-084-089>092-210100-
SOUTH CENTRAL AND SOUTHEAST INDIANA

CITY           SKY/WX    TMP DP  RH WIND       PRES   REMARKS
BLOOMINGTON    CLOUDY    76  70  82 SW3       29.96R
6HR MIN TEMP:  73; 6HR MAX TEMP:  81; 6HR PCP:  0.05;


$$




USA.gov is the U.S. government's official web portal to all federal, state and local government web resources and services.